CW3442 Weather Reports


time (UTC)temp
C
wind
direction
speed
KPH
gust
KPH
rain 1hr
cm
rain 24hr
cm
rain mn
cm
humidity
%
barometer
mb
20260504070328 7 217 0.0 0.0 0.00 0.00 0.00 70 786.3
20260504050333 6 173 0.0 0.0 0.00 0.00 0.00 62 786.4
20260504043326 6 173 0.0 0.0 0.00 0.00 0.00 62 786.5
20260504040402 6 173 0.0 0.0 0.00 0.00 0.00 62 786.5
20260504033324 6 142 0.0 0.0 0.00 0.00 0.00 62 786.5
20260504030339 6 142 0.0 0.0 0.00 0.00 0.00 59 786.5
20260504023335 7 142 0.0 0.0 0.00 0.00 0.00 54 786.6
20260504020347 8 142 0.0 0.0 0.00 0.00 0.00 49 786.6
20260504013324 9 162 0.0 0.0 0.00 0.00 0.00 46 786.6
20260504010333 10 236 0.0 0.0 0.00 0.00 0.00 45 786.6
20260504003332 11 219 0.0 0.0 0.00 0.00 0.00 41 786.6
20260504000337 11 161 0.0 0.0 0.00 0.00 0.00 39 786.5
20260503233324 11 161 0.0 0.0 0.00 0.00 0.00 36 786.5
20260503230355 12 218 0.0 0.0 0.00 0.00 0.00 34 786.5
20260503223334 12 196 0.0 0.0 0.00 0.00 0.00 32 786.5
20260503220343 12 273 0.0 0.0 0.00 0.00 0.00 31 786.5
20260503213326 12 269 0.0 0.0 0.00 0.00 0.00 34 786.6
20260503210344 13 266 0.0 0.0 0.00 0.00 0.00 33 786.5
20260503203336 11 242 0.0 0.0 0.00 0.00 0.00 37 786.6
20260503200327 12 221 0.0 0.0 0.00 0.00 0.00 37 786.7
20260503193335 12 196 0.0 0.0 0.00 0.00 0.00 38 786.7
20260503190328 12 305 0.0 0.0 0.00 0.00 0.00 39 786.8
20260503183327 11 285 0.0 0.0 0.00 0.00 0.00 39 786.9
20260503180349 11 214 0.0 0.0 0.00 0.00 0.00 40 786.9
20260503173320 10 209 0.0 0.0 0.00 0.00 0.00 45 787.1
20260503170336 9 260 0.0 0.0 0.00 0.00 0.00 50 787.1
20260503150336 8 209 0.0 0.0 0.00 0.00 0.00 53 787.5
20260503130336 6 232 0.0 0.0 0.00 0.00 0.00 66 787.7
20260503110326 2 286 0.0 0.0 0.00 0.00 0.00 87 787.6
20260503090356 2 286 0.0 0.0 0.00 0.00 0.00 89 787.7
20260503080330 1 286 0.0 0.0 0.00 0.00 0.00 90 787.7